Lanseria, South Africa

3:48 PM SAST on August 29, 2016 (GMT +0200)
Lanseria

Weather History for FALA - August, 2013

Change the Weather History Date:

Friday, August 2, 2013

  Actual Average Record
Temperature  
Mean Temperature 52 °F -  
Max Temperature 66 °F - - ()
Min Temperature 39 °F - - ()
Degree Days  
Heating Degree Days 12    
Growing Degree Days 2 (Base 50)    
Moisture  
Dew Point 32 °F    
Average Humidity 48    
Maximum Humidity 75    
Minimum Humidity 18    
Precipitation  
Precipitation 0.00 in - - ()
Sea Level Pressure  
Sea Level Pressure 30.55 in    
Wind  
Wind Speed 2 mph ()    
Max Wind Speed 9 mph    
Max Gust Speed -    
Visibility 6.2 miles    
Events      
T = Trace of Precipitation, MM = Missing Value Source: Averaged Metar Reports

Daily Weather History Graph

Daily Weather History Graph

Search for Another Location

Airport or City:

Trip Planner

Search our weather history database for the weather conditions in past years. The results will help you decide how hot, cold, wet, or windy it might be!

Date:

Astronomy

Aug. 02, 2013 Rise Set
Actual Time 6:46 AM SAST 5:42 PM SAST
Civil Twilight 6:22 AM SAST 6:07 PM SAST
Nautical Twilight 5:54 AM SAST 6:34 PM SAST
Astronomical Twilight 5:27 AM SAST 7:02 PM SAST
Moon 3:08 AM SAST (8/2) 2:07 PM SAST (8/2)
Length of Visible Light 11h 44m
Length of Day
10h 56m
Waning Crescent, 17% of the Moon is Illuminated
Aug 2
Waning Crescent
Aug 6
New
Aug 14
First Quarter
Aug 21
Full
Aug 28
Last Quarter

Hourly Weather History & Observations

Time (SAST) Temp. Windchill Dew Point Humidity Pressure Visibility Wind Dir Wind Speed Gust Speed Precip Events Conditions
12:00 AM 44.6 °F - 26.6 °F 49% 30.48 in - Calm Calm - N/A   Clear
1:00 AM 44.6 °F - 28.4 °F 53% 30.54 in - Calm Calm - N/A   Clear
3:00 AM 44.6 °F 41.4 °F 28.4 °F 53% 30.54 in - SSW 5.8 mph - N/A   Clear
4:00 AM 44.6 °F - 28.4 °F 53% 30.54 in - Calm Calm - N/A   Clear
6:00 AM 39.2 °F - 32.0 °F 75% 30.57 in - Calm Calm - N/A   Clear
7:00 AM 39.2 °F - 32.0 °F 75% 30.60 in - Calm Calm - N/A   Clear
8:00 AM 42.8 °F 41.1 °F 33.8 °F 70% 30.60 in - SW 3.5 mph - N/A   Clear
8:11 AM 46.4 °F - 37.4 °F 71% 30.63 in - Calm Calm - N/A   Clear
8:55 AM 50.0 °F - 39.2 °F 66% 30.63 in - Variable 2.3 mph - N/A   Clear
9:00 AM 50.0 °F - 39.2 °F 66% 30.63 in - Variable 2.3 mph - N/A   Clear
9:48 AM 53.6 °F - 42.8 °F 67% 30.63 in - Variable 4.6 mph - N/A   Clear
10:00 AM 53.6 °F - 41.0 °F 62% 30.63 in 6.2 mi Variable 5.8 mph - N/A   Partly Cloudy
11:00 AM 59.0 °F - 39.2 °F 48% 30.60 in 6.2 mi Variable 2.3 mph - N/A   Partly Cloudy
12:00 PM 59.0 °F - 35.6 °F 42% 30.57 in 6.2 mi Variable 4.6 mph - N/A   Partly Cloudy
1:00 PM 62.6 °F - 33.8 °F 34% 30.54 in 6.2 mi Variable 5.8 mph - N/A   Partly Cloudy
2:00 PM 64.4 °F - 33.8 °F 32% 30.48 in - ESE 6.9 mph - N/A   Clear
3:00 PM 66.2 °F - 30.2 °F 26% 30.45 in - North 6.9 mph - N/A   Clear
4:00 PM 66.2 °F - 21.2 °F 18% 30.45 in - East 9.2 mph - N/A   Clear
5:00 PM 64.4 °F - 21.2 °F 19% 30.45 in - NNE 9.2 mph - N/A   Clear
7:00 PM 57.2 °F - 24.8 °F 29% 30.48 in - Calm Calm - N/A   Clear
8:00 PM 55.4 °F - 24.8 °F 31% 30.51 in - WSW 3.5 mph - N/A   Clear
9:00 PM 51.8 °F - 26.6 °F 38% 30.51 in - SSW 4.6 mph - N/A   Clear
10:00 PM 50.0 °F - 24.8 °F 37% 30.51 in - SSE 4.6 mph - N/A   Clear